Location: St. Louis
(38.6270°N, 90.1994°W)
Time: 20:37:15
(UTC-06:00)

Vanguard 1 - Pass Details

Date: 30 November 2021
Orbit: 652 x 3830 km, 34.2° (Epoch: 21 January)

Event Time Altitude Azimuth Distance (km) Brightness Sun altitude
Exits shadow 02:36:04 74° 151° (SSE) 3,421 12.4 -50.6°
Drops below altitude 10° 02:51:13 10° 91° (E) 5,009 14.2 -47.8°
Sets 02:54:18 0° 90° (E) 5,679 14.7 -47.2°
